TimeCDT,TemperatureF,Dew PointF,Humidity,Sea Level PressureIn,VisibilityMPH,Wind Direction,Wind SpeedMPH,Gust SpeedMPH,PrecipitationIn,Events,Conditions,WindDirDegrees,DateUTC
12:15 AM,60.4,56.5,87,30.16,10.0,Calm,Calm,-,N/A,,Clear,0,2013-08-18 05:15:00
12:35 AM,59.0,56.1,90,30.16,10.0,Calm,Calm,-,N/A,,Clear,0,2013-08-18 05:35:00
12:55 AM,59.4,55.9,88,30.16,10.0,Calm,Calm,-,N/A,,Clear,0,2013-08-18 05:55:00
1:15 AM,59.4,55.8,88,30.16,10.0,Calm,Calm,-,N/A,,Clear,0,2013-08-18 06:15:00
1:35 AM,59.5,55.9,88,30.16,10.0,Calm,Calm,-,N/A,,Clear,0,2013-08-18 06:35:00
1:55 AM,58.1,55.0,90,30.16,10.0,Calm,Calm,-,N/A,,Clear,0,2013-08-18 06:55:00
2:15 AM,58.5,55.4,90,30.16,10.0,Calm,Calm,-,N/A,,Clear,0,2013-08-18 07:15:00
2:35 AM,57.7,54.5,89,30.16,10.0,WNW,3.5,-,N/A,,Clear,300,2013-08-18 07:35:00
2:55 AM,58.3,54.9,88,30.16,10.0,Calm,Calm,-,N/A,,Clear,0,2013-08-18 07:55:00
3:15 AM,57.7,54.7,90,30.15,10.0,Calm,Calm,-,N/A,,Clear,0,2013-08-18 08:15:00
3:35 AM,56.7,53.8,90,30.15,10.0,Calm,Calm,-,N/A,,Clear,0,2013-08-18 08:35:00
3:55 AM,56.8,53.8,89,30.15,10.0,Calm,Calm,-,N/A,,Clear,0,2013-08-18 08:55:00
4:15 AM,57.0,54.0,89,30.16,10.0,Calm,Calm,-,N/A,,Clear,0,2013-08-18 09:15:00
4:35 AM,57.2,53.8,88,30.16,10.0,NW,3.5,-,N/A,,Clear,310,2013-08-18 09:35:00
4:55 AM,56.7,53.6,89,30.16,10.0,NW,3.5,-,N/A,,Clear,320,2013-08-18 09:55:00
5:15 AM,56.5,53.4,89,30.16,10.0,Calm,Calm,-,N/A,,Clear,0,2013-08-18 10:15:00
5:35 AM,56.5,53.6,90,30.17,10.0,NW,3.5,-,N/A,,Clear,310,2013-08-18 10:35:00
5:55 AM,57.0,53.8,89,30.17,10.0,Calm,Calm,-,N/A,,Scattered Clouds,0,2013-08-18 10:55:00
6:15 AM,56.7,53.6,89,30.18,10.0,Calm,Calm,-,N/A,,Mostly Cloudy,0,2013-08-18 11:15:00
6:35 AM,57.0,54.0,89,30.19,10.0,Calm,Calm,-,N/A,,Mostly Cloudy,0,2013-08-18 11:35:00
6:55 AM,58.1,54.5,88,30.19,10.0,Calm,Calm,-,N/A,,Scattered Clouds,0,2013-08-18 11:55:00
7:15 AM,58.1,55.6,91,30.20,7.0,Calm,Calm,-,N/A,,Clear,0,2013-08-18 12:15:00
7:35 AM,59.9,57.4,91,30.20,7.0,Calm,Calm,-,N/A,,Clear,0,2013-08-18 12:35:00
7:55 AM,63.1,57.7,83,30.21,10.0,Calm,Calm,-,N/A,,Clear,0,2013-08-18 12:55:00
8:15 AM,65.3,58.8,80,30.21,10.0,Calm,Calm,-,N/A,,Clear,0,2013-08-18 13:15:00
8:35 AM,66.2,58.8,77,30.21,10.0,Calm,Calm,-,N/A,,Clear,0,2013-08-18 13:35:00
8:55 AM,68.4,60.8,77,30.20,10.0,Calm,Calm,-,N/A,,Clear,0,2013-08-18 13:55:00
9:15 AM,69.6,61.0,74,30.21,10.0,Calm,Calm,-,N/A,,Clear,0,2013-08-18 14:15:00
9:35 AM,71.2,61.3,71,30.21,10.0,Calm,Calm,-,N/A,,Clear,0,2013-08-18 14:35:00
9:55 AM,73.6,61.9,67,30.21,10.0,ENE,3.5,-,N/A,,Clear,70,2013-08-18 14:55:00
10:15 AM,75.2,61.2,62,30.21,10.0,NE,3.5,-,N/A,,Clear,50,2013-08-18 15:15:00
10:35 AM,75.0,60.1,60,30.21,10.0,NNE,5.8,-,N/A,,Clear,30,2013-08-18 15:35:00
10:55 AM,77.0,60.4,56,30.20,10.0,North,4.6,-,N/A,,Clear,10,2013-08-18 15:55:00
11:15 AM,77.2,59.2,54,30.20,10.0,North,4.6,-,N/A,,Clear,10,2013-08-18 16:15:00
11:35 AM,77.5,58.3,51,30.20,10.0,North,8.1,-,N/A,,Clear,360,2013-08-18 16:35:00
11:55 AM,78.8,59.4,51,30.20,10.0,NE,8.1,-,N/A,,Clear,50,2013-08-18 16:55:00
12:15 PM,79.2,59.9,52,30.19,10.0,NE,5.8,-,N/A,,Clear,50,2013-08-18 17:15:00
12:35 PM,79.0,59.2,51,30.18,10.0,North,6.9,-,N/A,,Clear,350,2013-08-18 17:35:00
12:55 PM,79.0,59.0,50,30.18,10.0,NNW,4.6,-,N/A,,Clear,330,2013-08-18 17:55:00
1:15 PM,79.5,59.0,49,30.18,10.0,NE,4.6,-,N/A,,Clear,40,2013-08-18 18:15:00
1:35 PM,80.6,60.1,49,30.17,10.0,East,3.5,-,N/A,,Clear,100,2013-08-18 18:35:00
1:55 PM,81.3,60.6,49,30.16,10.0,Calm,Calm,-,N/A,,Clear,0,2013-08-18 18:55:00
2:15 PM,81.0,61.0,50,30.16,10.0,NNE,3.5,-,N/A,,Clear,20,2013-08-18 19:15:00
2:35 PM,81.7,61.2,50,30.16,10.0,NE,3.5,-,N/A,,Clear,40,2013-08-18 19:35:00
2:55 PM,82.2,60.4,48,30.15,10.0,Calm,Calm,-,N/A,,Clear,0,2013-08-18 19:55:00
3:15 PM,82.4,60.8,48,30.14,10.0,NE,3.5,-,N/A,,Clear,40,2013-08-18 20:15:00
3:35 PM,80.1,60.1,50,30.14,10.0,NE,6.9,-,N/A,,Clear,50,2013-08-18 20:35:00
3:55 PM,82.8,61.2,48,30.14,10.0,East,4.6,-,N/A,,Clear,80,2013-08-18 20:55:00
4:15 PM,82.2,61.0,48,30.13,10.0,ENE,4.6,-,N/A,,Clear,70,2013-08-18 21:15:00
4:35 PM,81.9,61.3,50,30.13,10.0,East,4.6,-,N/A,,Clear,80,2013-08-18 21:35:00
4:55 PM,82.4,61.2,48,30.13,10.0,East,4.6,-,N/A,,Clear,80,2013-08-18 21:55:00
5:15 PM,82.0,60.3,47,30.13,10.0,Calm,Calm,-,N/A,,Clear,0,2013-08-18 22:15:00
5:35 PM,81.9,60.8,49,30.12,10.0,Calm,Calm,-,N/A,,Clear,0,2013-08-18 22:35:00
5:55 PM,80.4,60.3,50,30.12,10.0,Calm,Calm,-,N/A,,Clear,0,2013-08-18 22:55:00
6:15 PM,81.0,61.7,52,30.12,10.0,East,3.5,-,N/A,,Clear,100,2013-08-18 23:15:00
6:35 PM,80.4,62.2,54,30.11,10.0,Calm,Calm,-,N/A,,Clear,0,2013-08-18 23:35:00
6:55 PM,78.8,63.9,60,30.12,10.0,Calm,Calm,-,N/A,,Clear,0,2013-08-18 23:55:00
7:15 PM,78.1,65.7,65,30.12,10.0,Calm,Calm,-,N/A,,Clear,0,2013-08-19 00:15:00
7:35 PM,75.7,65.5,70,30.12,10.0,Calm,Calm,-,N/A,,Clear,0,2013-08-19 00:35:00
7:55 PM,72.5,65.8,80,30.12,10.0,Calm,Calm,-,N/A,,Clear,0,2013-08-19 00:55:00
8:15 PM,71.2,65.3,81,30.12,10.0,Calm,Calm,-,N/A,,Clear,0,2013-08-19 01:15:00
8:35 PM,70.7,64.9,82,30.12,10.0,Calm,Calm,-,N/A,,Clear,0,2013-08-19 01:35:00
8:55 PM,69.4,63.7,82,30.13,10.0,Calm,Calm,-,N/A,,Clear,0,2013-08-19 01:55:00
9:15 PM,67.8,63.5,86,30.13,10.0,Calm,Calm,-,N/A,,Clear,0,2013-08-19 02:15:00
9:35 PM,67.5,63.7,88,30.14,10.0,Calm,Calm,-,N/A,,Clear,0,2013-08-19 02:35:00
9:55 PM,67.1,63.3,88,30.14,10.0,Calm,Calm,-,N/A,,Clear,0,2013-08-19 02:55:00
10:15 PM,66.7,62.6,86,30.14,10.0,Calm,Calm,-,N/A,,Clear,0,2013-08-19 03:15:00
10:35 PM,66.0,62.6,89,30.14,10.0,Calm,Calm,-,N/A,,Clear,0,2013-08-19 03:35:00
10:55 PM,65.5,62.1,89,30.14,10.0,Calm,Calm,-,N/A,,Clear,0,2013-08-19 03:55:00
11:15 PM,66.2,62.8,89,30.14,7.0,Calm,Calm,-,N/A,,Clear,0,2013-08-19 04:15:00
11:35 PM,64.9,61.7,89,30.14,10.0,Calm,Calm,-,N/A,,Clear,0,2013-08-19 04:35:00
11:55 PM,63.7,61.0,91,30.13,7.0,Calm,Calm,-,N/A,,Clear,0,2013-08-19 04:55:00